Regional Weather Roundup
Issued by NWS

Home | Current Version | Previous Version | Text Only | Print | Product List | Glossary Off
Versions: 1 2 3 4 5 6 7 8 9 10 11 12 13 14 15 16 17 18 19 20 21 22 23 24 25 26 27 28 29 30 31 32 33 34 35 36 37 38 39 40 41 42 43 44 45 46 47 48 49 50

000
ASUS43 KIND 062209
RWRIN

WEATHER ROUNDUP FOR INDIANA
NATIONAL WEATHER SERVICE INDIANAPOLIS IN
500 PM EST SAT FEB 06 2016

NOTE: "FAIR" INDICATES FEW OR NO CLOUDS BELOW 12,000 FEET WITH NO
SIGNIFICANT WEATHER AND/OR OBSTRUCTIONS TO VISIBILITY.

* - STATION DOES NOT REPORT WEATHER SUCH AS PRECIPITATION OR FOG.

+ - STATION NOT QUALITY CONTROLLED BY THE NATIONAL WEATHER SERVICE.
    USE DATA WITH CAUTION...ESPECIALLY DEWPOINT AND RELATIVE
    HUMIDITY OBSERVATIONS.

INZ001>003-010>013-019-020-062300-
NORTHWEST INDIANA

CITY           SKY/WX    TMP DP  RH WIND       PRES   REMARKS
GARY /AIRPORT/ MOSUNNY   43  27  52 SW14      30.18F
LA PORTE +     SUNNY     41  29  64 SW12      30.19S
MICHIGAN CITY+ SUNNY     39  30  70 SW9       30.18F
MONTICELLO +   SUNNY     41  24  51 SW9       30.20S
RENSSELAER +   SUNNY     41  28  60 SW12      30.20S
VALPARAISO     SUNNY     40  28  62 SW14      30.18F

$$

LMZ046-743>745-062300-
SOUTHERN LAKE MICHIGAN

STATION/POSITION TIME  TEMP    WIND        PRES    WAVE
                       AIR SEA DIR/SP/G            HT
                 (UTC) (F)     (DEG/KT/KT) (MB)    (FT)
BURNS HARBOR     2100   40     230/ 10/ 15 1022.7S
MICHIGAN CITY    2100   38     220/ 11/ 13   N/A

$$

INZ004-005-014>016-021>024-062300-
NORTH CENTRAL INDIANA

CITY           SKY/WX    TMP DP  RH WIND       PRES   REMARKS
ELKHART          N/A     37  27  65 MISG      30.19S
GOSHEN         MOSUNNY   38  26  62 SW12      30.19S
LOGANSPORT +   SUNNY     39  25  56 SW8       30.21S
PERU/GRISSOM   SUNNY     41  27  56 W12       30.19S
ROCHESTER +    SUNNY     41  23  48 SW10      30.21R
SOUTH BEND     CLOUDY    38  27  64 SW10      30.19S
WARSAW +       MOSUNNY   37  27  65 SW13      30.20S

$$

INZ006>009-017-018-025>027-062300-
NORTHEAST INDIANA

CITY           SKY/WX    TMP DP  RH WIND       PRES   REMARKS
AUBURN +       CLEAR     37  21  52 SW7       30.20S
FORT WAYNE     PTCLDY    38  26  62 SW14      30.21S
HUNTINGTON +   SUNNY     39  22  49 SW9       30.21R

$$

INZ028-029-035-036-043>045-051>053-062300-
WEST CENTRAL INDIANA

CITY           SKY/WX    TMP DP  RH WIND       PRES   REMARKS
GREENCASTLE +  SUNNY     45  19  36 S5        30.23S
LAFAYETTE      SUNNY     43  27  53 SW6       30.21S
TERRE HAUTE    SUNNY     48  27  44 SW9       30.23S

$$

INZ030>032-037>040-046>048-054>057-064-065-062300-
CENTRAL INDIANA

CITY           SKY/WX    TMP DP  RH WIND       PRES   REMARKS
FISHERS *+     SUNNY     43  30  61 SW7       30.22F
FRANKFORT +    SUNNY     43  19  39 S6        30.23S
GREENWOOD *+   SUNNY     46  28  49 SW7       30.24S
INDIANAPOLIS   SUNNY     46  23  40 W12       30.22S
-EAGLE CREEK   SUNNY     45  24  43 SW6       30.22S
KOKOMO *+        N/A     41  25  52 SW14      30.21S
MARION +       SUNNY     40  19  43 SW10      30.22S
MT COMFORT *+  SUNNY     43  27  52 W8        30.23S
SHELBYVILLE    SUNNY     46  26  45 SW6       30.23S
ZIONSVILLE +   SUNNY     42  27  55 SW10      30.23R

$$

INZ033-034-041-042-049-050-058-059-062300-
EAST CENTRAL INDIANA

CITY           SKY/WX    TMP DP  RH WIND       PRES   REMARKS
MUNCIE         SUNNY     42  23  46 SW8       30.22S

$$

INZ060-061-067>069-081>083-085>088-062300-
SOUTHWEST INDIANA

CITY           SKY/WX    TMP DP  RH WIND       PRES   REMARKS
EVANSVILLE     SUNNY     54  25  32 SW7       30.26F
HUNTINGBURG *+ SUNNY     52  30  43 SW7       30.26S
WASHINGTON +   SUNNY     50  24  36 SW8       30.24F

$$

INZ062-063-066-070>080-084-089>092-062300-
SOUTH CENTRAL AND SOUTHEAST INDIANA

CITY           SKY/WX    TMP DP  RH WIND       PRES   REMARKS
BEDFORD +      SUNNY     50  25  37 SW7       30.25R
BLOOMINGTON    SUNNY     48  25  40 W9        30.23S
MADISON *+     SUNNY     46  23  39 SW7       30.27S
NORTH VERNON + SUNNY     46  25  42 CALM      30.25S
SEYMOUR +      SUNNY     50  28  43 W6        30.25S

$$




USA.gov is the U.S. government's official web portal to all federal, state and local government web resources and services.